SIA950 WSSS-WIII

Flight info

Callsign SIA950
Flight time 1h 18m
Altitude 34000
Route ANITO7A ANITO B470 BUNIK BUNIK2M
Aircraft B77W/H-SDE1E2E3FGHIJ2J3J4J5M1RWXYZ/LB1D1

Departure

Time 2026-05-06 17:22
Airport Singapore Changi Airport (WSSS)

Arrival

Time 2026-05-06 18:41
Airport Soekarno-Hatta International Airport (WIII)
Time Latitude Longitude Altitude Speed Heading
2026-05-06 16:49 1.35427 103.98434 41 ft 0 kts 67°
2026-05-06 17:10 1.35426 103.98432 41 ft 1 kts 67°
2026-05-06 17:10 1.35421 103.98418 41 ft 2 kts 67°
2026-05-06 17:10 1.35415 103.98405 40 ft 2 kts 67°
2026-05-06 17:10 1.35409 103.98391 40 ft 2 kts 67°
2026-05-06 17:11 1.35403 103.98377 39 ft 2 kts 67°
2026-05-06 17:11 1.35397 103.98364 39 ft 2 kts 67°
2026-05-06 17:11 1.35391 103.98350 38 ft 2 kts 69°
2026-05-06 17:11 1.35388 103.98335 37 ft 2 kts 88°
2026-05-06 17:12 1.35389 103.98321 37 ft 2 kts 105°
2026-05-06 17:12 1.35394 103.98307 37 ft 2 kts 121°
2026-05-06 17:12 1.35403 103.98295 37 ft 2 kts 137°
2026-05-06 17:12 1.35415 103.98286 37 ft 2 kts 153°
2026-05-06 17:13 1.35423 103.98283 36 ft 1 kts 161°
2026-05-06 17:14 1.35418 103.98284 36 ft 2 kts 161°
2026-05-06 17:15 1.35395 103.98292 37 ft 4 kts 159°
2026-05-06 17:15 1.35353 103.98308 37 ft 7 kts 165°
2026-05-06 17:15 1.35294 103.98303 37 ft 9 kts 197°
2026-05-06 17:15 1.35227 103.98279 38 ft 11 kts 201°
2026-05-06 17:16 1.35154 103.98239 39 ft 12 kts 222°
2026-05-06 17:16 1.35102 103.98158 39 ft 14 kts 240°
2026-05-06 17:16 1.35019 103.98092 39 ft 16 kts 205°
2026-05-06 17:16 1.34909 103.98045 39 ft 17 kts 203°
2026-05-06 17:17 1.34827 103.98018 40 ft 10 kts 173°
2026-05-06 17:17 1.34776 103.98074 40 ft 11 kts 115°
2026-05-06 17:17 1.34737 103.98160 40 ft 14 kts 113°
2026-05-06 17:17 1.34693 103.98261 42 ft 16 kts 113°
2026-05-06 17:18 1.34645 103.98374 43 ft 19 kts 113°
2026-05-06 17:18 1.34588 103.98508 42 ft 22 kts 113°
2026-05-06 17:18 1.34521 103.98661 41 ft 25 kts 113°
2026-05-06 17:18 1.34452 103.98828 40 ft 24 kts 113°
2026-05-06 17:19 1.34367 103.98925 38 ft 17 kts 181°
2026-05-06 17:19 1.34249 103.98880 36 ft 19 kts 203°
2026-05-06 17:19 1.34112 103.98822 34 ft 22 kts 202°
2026-05-06 17:19 1.33961 103.98758 36 ft 24 kts 203°
2026-05-06 17:20 1.33799 103.98689 34 ft 26 kts 203°
2026-05-06 17:20 1.33619 103.98614 34 ft 28 kts 203°
2026-05-06 17:20 1.33431 103.98534 36 ft 29 kts 203°
2026-05-06 17:20 1.33261 103.98463 39 ft 24 kts 203°
2026-05-06 17:21 1.33123 103.98406 39 ft 15 kts 192°
2026-05-06 17:21 1.33036 103.98457 38 ft 15 kts 121°
2026-05-06 17:21 1.33029 103.98557 37 ft 14 kts 47°
2026-05-06 17:21 1.33120 103.98602 36 ft 14 kts 22°
2026-05-06 17:22 1.33231 103.98649 35 ft 25 kts 22°
2026-05-06 17:22 1.33652 103.98825 34 ft 111 kts 23°
2026-05-06 17:22 1.34624 103.99236 140 ft 182 kts 19°
2026-05-06 17:22 1.35773 103.99686 1220 ft 177 kts 21°
2026-05-06 17:23 1.36923 104.00175 1902 ft 192 kts 23°
2026-05-06 17:23 1.38281 104.00763 1989 ft 230 kts 23°
2026-05-06 17:23 1.39835 104.01424 1981 ft 250 kts 23°
2026-05-06 17:23 1.41470 104.02116 1973 ft 256 kts 23°
2026-05-06 17:24 1.43142 104.02823 1973 ft 257 kts 23°
2026-05-06 17:24 1.44782 104.03516 1974 ft 258 kts 23°
2026-05-06 17:24 1.46399 104.04310 1946 ft 256 kts 37°
2026-05-06 17:24 1.47546 104.05660 1935 ft 257 kts 64°
2026-05-06 17:25 1.47926 104.07430 2048 ft 280 kts 94°
2026-05-06 17:25 1.47430 104.09306 3164 ft 277 kts 109°
2026-05-06 17:25 1.46680 104.11030 3758 ft 271 kts 113°
2026-05-06 17:25 1.45871 104.12740 3940 ft 269 kts 114°
2026-05-06 17:26 1.45077 104.14423 3961 ft 267 kts 113°
2026-05-06 17:26 1.44294 104.16099 3964 ft 266 kts 113°
2026-05-06 17:26 1.43509 104.17786 3966 ft 266 kts 113°
2026-05-06 17:26 1.42976 104.18937 4073 ft 284 kts 113°
2026-05-06 17:27 1.41891 104.21284 5675 ft 281 kts 113°
2026-05-06 17:27 1.41082 104.23036 6530 ft 280 kts 113°
2026-05-06 17:27 1.40264 104.24807 6896 ft 281 kts 113°
2026-05-06 17:27 1.39438 104.26591 6941 ft 281 kts 113°
2026-05-06 17:28 1.38618 104.28362 6956 ft 280 kts 113°
2026-05-06 17:28 1.37803 104.30125 6957 ft 280 kts 113°
2026-05-06 17:28 1.36981 104.31903 6949 ft 281 kts 113°
2026-05-06 17:28 1.36160 104.33678 6943 ft 281 kts 113°
2026-05-06 17:29 1.35339 104.35452 6940 ft 280 kts 113°
2026-05-06 17:29 1.34529 104.37202 6937 ft 280 kts 113°
2026-05-06 17:29 1.33680 104.38959 6912 ft 280 kts 121°
2026-05-06 17:29 1.32324 104.40350 6885 ft 282 kts 146°
2026-05-06 17:30 1.30448 104.41125 7472 ft 300 kts 161°
2026-05-06 17:30 1.28455 104.41679 8427 ft 295 kts 163°
2026-05-06 17:30 1.26457 104.42195 8847 ft 295 kts 163°
2026-05-06 17:30 1.24461 104.42705 8924 ft 294 kts 163°
2026-05-06 17:31 1.22474 104.43215 8930 ft 292 kts 163°
2026-05-06 17:31 1.20516 104.43720 8929 ft 292 kts 163°
2026-05-06 17:31 1.18537 104.44230 8931 ft 292 kts 163°
2026-05-06 17:31 1.16562 104.44739 8933 ft 292 kts 163°
2026-05-06 17:32 1.14580 104.45251 8931 ft 291 kts 163°
2026-05-06 17:32 1.12617 104.45757 8932 ft 291 kts 163°
2026-05-06 17:32 1.10653 104.46265 8942 ft 294 kts 163°
2026-05-06 17:32 1.08624 104.46828 9639 ft 307 kts 162°
2026-05-06 17:33 1.06592 104.47400 10776 ft 306 kts 162°
2026-05-06 17:33 1.04502 104.47987 11407 ft 322 kts 162°
2026-05-06 17:33 1.02280 104.48607 12029 ft 339 kts 162°
2026-05-06 17:33 0.99950 104.49257 12662 ft 355 kts 162°
2026-05-06 17:34 0.97503 104.49940 13291 ft 370 kts 162°
2026-05-06 17:34 0.94967 104.50648 13914 ft 384 kts 162°
2026-05-06 17:34 0.92344 104.51380 14528 ft 398 kts 162°
2026-05-06 17:34 0.89632 104.52136 15282 ft 405 kts 162°
2026-05-06 17:35 0.86899 104.52898 15753 ft 411 kts 162°
2026-05-06 17:35 0.84107 104.53676 15831 ft 412 kts 162°
2026-05-06 17:35 0.81345 104.54443 15832 ft 411 kts 162°
2026-05-06 17:36 0.75813 104.55981 15824 ft 411 kts 162°
2026-05-06 17:36 0.73053 104.56747 15831 ft 411 kts 162°
2026-05-06 17:36 0.70298 104.57513 15825 ft 411 kts 162°
2026-05-06 17:36 0.67537 104.58280 15824 ft 410 kts 162°
2026-05-06 17:37 0.64751 104.59063 15850 ft 418 kts 161°
2026-05-06 17:37 0.61949 104.59898 16593 ft 423 kts 161°
2026-05-06 17:37 0.59132 104.60741 17710 ft 418 kts 161°
2026-05-06 17:37 0.56362 104.61568 18594 ft 419 kts 161°
2026-05-06 17:38 0.53529 104.62415 19259 ft 426 kts 161°
2026-05-06 17:38 0.50672 104.63266 19925 ft 431 kts 161°
2026-05-06 17:38 0.47776 104.64129 20634 ft 435 kts 161°
2026-05-06 17:38 0.44875 104.64992 21312 ft 439 kts 161°
2026-05-06 17:39 0.41927 104.65865 21992 ft 442 kts 161°
2026-05-06 17:39 0.38972 104.66740 22661 ft 445 kts 161°
2026-05-06 17:39 0.35976 104.67628 23267 ft 450 kts 161°
2026-05-06 17:39 0.32943 104.68527 23864 ft 455 kts 161°
2026-05-06 17:40 0.29916 104.69424 24472 ft 459 kts 161°
2026-05-06 17:40 0.26814 104.70342 25068 ft 463 kts 161°
2026-05-06 17:40 0.23711 104.71262 25653 ft 467 kts 161°
2026-05-06 17:40 0.20587 104.72188 26220 ft 472 kts 161°
2026-05-06 17:41 0.17422 104.73126 26793 ft 476 kts 161°
2026-05-06 17:41 0.14230 104.74071 27350 ft 481 kts 161°
2026-05-06 17:41 0.10974 104.75038 27922 ft 485 kts 161°
2026-05-06 17:41 0.07747 104.75998 28464 ft 489 kts 161°
2026-05-06 17:42 0.04452 104.76977 29008 ft 493 kts 161°
2026-05-06 17:42 0.01169 104.77952 29666 ft 493 kts 161°
2026-05-06 17:42 -0.02139 104.78934 30426 ft 492 kts 161°
2026-05-06 17:42 -0.05421 104.79908 31177 ft 490 kts 161°
2026-05-06 17:43 -0.08667 104.80871 31859 ft 489 kts 161°
2026-05-06 17:43 -0.10861 104.81522 32282 ft 489 kts 161°
2026-05-06 17:43 -0.15187 104.82805 33161 ft 488 kts 161°
2026-05-06 17:43 -0.18478 104.83781 33758 ft 489 kts 161°
2026-05-06 17:44 -0.24974 104.85710 33826 ft 486 kts 161°
2026-05-06 17:44 -0.31040 104.88616 33845 ft 482 kts 144°
2026-05-06 17:45 -0.36696 104.92393 33828 ft 482 kts 144°
2026-05-06 17:45 -0.42237 104.96130 33826 ft 482 kts 143°
2026-05-06 17:46 -0.47837 104.99912 33827 ft 482 kts 143°
2026-05-06 17:46 -0.53378 105.03657 33825 ft 481 kts 143°
2026-05-06 17:47 -0.58918 105.07404 33825 ft 481 kts 143°
2026-05-06 17:47 -0.64499 105.11179 33826 ft 479 kts 143°
2026-05-06 17:48 -0.70022 105.14916 33825 ft 479 kts 143°
2026-05-06 17:48 -0.75555 105.18660 33826 ft 479 kts 143°
2026-05-06 17:49 -0.81070 105.22392 33826 ft 478 kts 143°
2026-05-06 17:49 -0.86624 105.26150 33818 ft 477 kts 143°
2026-05-06 17:50 -0.92137 105.29882 33807 ft 477 kts 143°
2026-05-06 17:50 -0.97644 105.33608 33804 ft 476 kts 143°
2026-05-06 17:51 -1.03139 105.37328 33804 ft 475 kts 143°
2026-05-06 17:51 -1.08598 105.41023 33806 ft 476 kts 143°
2026-05-06 17:52 -1.14083 105.44736 33806 ft 475 kts 143°
2026-05-06 17:52 -1.19591 105.48463 33815 ft 476 kts 143°
2026-05-06 17:53 -1.25055 105.52163 33825 ft 475 kts 143°
2026-05-06 17:53 -1.30562 105.55891 33826 ft 475 kts 143°
2026-05-06 17:54 -1.36013 105.59581 33824 ft 475 kts 143°
2026-05-06 17:54 -1.41512 105.63305 33821 ft 474 kts 143°
2026-05-06 17:55 -1.46978 105.67006 33826 ft 475 kts 144°
2026-05-06 17:55 -1.52461 105.70718 33828 ft 475 kts 144°
2026-05-06 17:56 -1.57925 105.74419 33827 ft 476 kts 144°
2026-05-06 17:56 -1.63401 105.78127 33830 ft 475 kts 143°
2026-05-06 17:57 -1.68894 105.81847 33827 ft 474 kts 143°
2026-05-06 17:57 -1.74365 105.85553 33830 ft 475 kts 144°
2026-05-06 17:58 -1.79815 105.89245 33834 ft 476 kts 144°
2026-05-06 17:58 -1.85313 105.92969 33833 ft 475 kts 144°
2026-05-06 17:59 -1.90800 105.96686 33839 ft 475 kts 143°
2026-05-06 17:59 -1.96261 106.00386 33840 ft 475 kts 143°
2026-05-06 18:00 -2.01734 106.04095 33838 ft 476 kts 143°
2026-05-06 18:00 -2.07240 106.07825 33836 ft 475 kts 143°
2026-05-06 18:01 -2.12697 106.11523 33831 ft 475 kts 144°
2026-05-06 18:01 -2.18667 106.14429 33802 ft 477 kts 161°
2026-05-06 18:02 -2.25170 106.15759 33827 ft 478 kts 169°
2026-05-06 18:02 -2.31764 106.16855 33832 ft 478 kts 169°
2026-05-06 18:03 -2.38357 106.17964 33834 ft 477 kts 169°
2026-05-06 18:03 -2.44939 106.19080 33836 ft 476 kts 169°
2026-05-06 18:04 -2.51466 106.20192 33841 ft 477 kts 169°
2026-05-06 18:04 -2.58033 106.21313 33840 ft 476 kts 169°
2026-05-06 18:05 -2.63529 106.22252 33841 ft 477 kts 169°
2026-05-06 18:05 -2.71144 106.23554 33842 ft 476 kts 169°
2026-05-06 18:06 -2.77758 106.24686 33840 ft 476 kts 169°
2026-05-06 18:06 -2.84292 106.25804 33839 ft 476 kts 169°
2026-05-06 18:07 -2.90425 106.26854 33838 ft 476 kts 169°
2026-05-06 18:07 -2.97101 106.27997 33833 ft 478 kts 169°
2026-05-06 18:08 -3.02591 106.28937 33827 ft 478 kts 169°
2026-05-06 18:08 -3.10294 106.30256 33821 ft 478 kts 169°
2026-05-06 18:09 -3.16852 106.31379 33820 ft 478 kts 169°
2026-05-06 18:09 -3.23440 106.32507 33821 ft 478 kts 169°
2026-05-06 18:10 -3.28907 106.33444 33822 ft 477 kts 169°
2026-05-06 18:10 -3.35474 106.34570 33824 ft 477 kts 169°
2026-05-06 18:11 -3.42042 106.35695 33824 ft 478 kts 168°
2026-05-06 18:11 -3.49727 106.37012 33825 ft 478 kts 168°
2026-05-06 18:12 -3.55224 106.37954 33824 ft 478 kts 169°
2026-05-06 18:12 -3.61766 106.39075 33824 ft 478 kts 169°
2026-05-06 18:13 -3.68360 106.40280 33825 ft 479 kts 168°
2026-05-06 18:13 -3.76009 106.41720 33825 ft 479 kts 168°
2026-05-06 18:14 -3.81494 106.42750 33824 ft 478 kts 168°
2026-05-06 18:14 -3.88052 106.43980 33824 ft 479 kts 168°
2026-05-06 18:15 -3.94646 106.45215 33823 ft 479 kts 168°
2026-05-06 18:15 -4.01241 106.46450 33824 ft 479 kts 168°
2026-05-06 18:16 -4.07814 106.47681 33825 ft 479 kts 168°
2026-05-06 18:16 -4.14393 106.48914 33826 ft 479 kts 168°
2026-05-06 18:17 -4.20928 106.50137 33184 ft 471 kts 168°
2026-05-06 18:17 -4.24144 106.50740 32105 ft 475 kts 168°
2026-05-06 18:17 -4.27437 106.51357 31251 ft 475 kts 167°
2026-05-06 18:18 -4.30648 106.51959 30514 ft 472 kts 167°
2026-05-06 18:18 -4.33862 106.52560 30058 ft 463 kts 167°
2026-05-06 18:18 -4.37026 106.53153 29583 ft 471 kts 167°
2026-05-06 18:18 -4.40283 106.53766 29029 ft 477 kts 167°
2026-05-06 18:19 -4.43565 106.54382 28461 ft 474 kts 167°
2026-05-06 18:19 -4.47832 106.55182 27744 ft 466 kts 167°
2026-05-06 18:19 -4.51013 106.55777 27192 ft 461 kts 167°
2026-05-06 18:19 -4.53120 106.56172 26820 ft 457 kts 167°
2026-05-06 18:20 -4.56264 106.56760 26255 ft 453 kts 166°
2026-05-06 18:20 -4.59341 106.57337 25700 ft 449 kts 167°
2026-05-06 18:20 -4.63422 106.58102 24958 ft 445 kts 166°
2026-05-06 18:20 -4.65470 106.58485 24578 ft 443 kts 166°
2026-05-06 18:21 -4.68495 106.59053 24017 ft 440 kts 166°
2026-05-06 18:21 -4.71487 106.59614 23457 ft 437 kts 166°
2026-05-06 18:21 -4.74486 106.60176 22894 ft 434 kts 166°
2026-05-06 18:21 -4.78434 106.60916 22184 ft 427 kts 166°
2026-05-06 18:22 -4.80355 106.61276 22070 ft 417 kts 166°
2026-05-06 18:22 -4.83163 106.61800 21974 ft 401 kts 166°
2026-05-06 18:22 -4.85822 106.62390 21855 ft 384 kts 159°
2026-05-06 18:22 -4.88285 106.63361 21607 ft 376 kts 153°
2026-05-06 18:23 -4.90680 106.64440 21178 ft 379 kts 153°
2026-05-06 18:23 -4.93872 106.65890 20627 ft 374 kts 152°
2026-05-06 18:23 -4.95462 106.66613 20370 ft 371 kts 152°
2026-05-06 18:23 -4.98583 106.68034 19872 ft 368 kts 153°
2026-05-06 18:24 -5.00149 106.68748 19621 ft 367 kts 152°
2026-05-06 18:24 -5.02489 106.69816 19247 ft 366 kts 153°
2026-05-06 18:24 -5.04781 106.70862 18880 ft 364 kts 153°
2026-05-06 18:24 -5.07108 106.71925 18509 ft 362 kts 153°
2026-05-06 18:25 -5.09387 106.72965 18143 ft 360 kts 153°
2026-05-06 18:25 -5.11665 106.74006 17778 ft 359 kts 153°
2026-05-06 18:25 -5.13950 106.75050 17431 ft 356 kts 153°
2026-05-06 18:25 -5.16947 106.76420 17034 ft 355 kts 153°
2026-05-06 18:26 -5.18441 106.77102 16806 ft 354 kts 153°
2026-05-06 18:26 -5.20676 106.78114 16436 ft 348 kts 153°
2026-05-06 18:26 -5.22865 106.79102 16068 ft 343 kts 153°
2026-05-06 18:26 -5.25037 106.80084 15704 ft 338 kts 153°
2026-05-06 18:27 -5.27151 106.81039 15351 ft 332 kts 153°
2026-05-06 18:27 -5.29260 106.81993 14995 ft 327 kts 153°
2026-05-06 18:27 -5.31320 106.82925 14652 ft 323 kts 153°
2026-05-06 18:27 -5.34021 106.84148 14201 ft 316 kts 152°
2026-05-06 18:28 -5.35356 106.84753 13978 ft 313 kts 153°
2026-05-06 18:28 -5.37330 106.85648 13647 ft 309 kts 152°
2026-05-06 18:28 -5.39279 106.86531 13321 ft 304 kts 152°
2026-05-06 18:28 -5.41217 106.87409 12998 ft 300 kts 152°
2026-05-06 18:29 -5.43097 106.88261 12687 ft 296 kts 152°
2026-05-06 18:29 -5.44976 106.89114 12377 ft 293 kts 152°
2026-05-06 18:29 -5.46858 106.89909 12035 ft 294 kts 162°
2026-05-06 18:29 -5.48891 106.90156 11677 ft 297 kts 175°
2026-05-06 18:30 -5.50964 106.90148 11258 ft 298 kts 178°
2026-05-06 18:30 -5.53749 106.90094 10688 ft 299 kts 178°
2026-05-06 18:30 -5.55826 106.90058 10259 ft 299 kts 178°
2026-05-06 18:30 -5.57227 106.90036 9974 ft 299 kts 178°
2026-05-06 18:31 -5.59320 106.90004 9547 ft 299 kts 178°
2026-05-06 18:31 -5.61396 106.89973 9127 ft 300 kts 178°
2026-05-06 18:31 -5.63482 106.89942 8699 ft 300 kts 178°
2026-05-06 18:31 -5.66280 106.89901 8184 ft 297 kts 178°
2026-05-06 18:32 -5.67648 106.89880 7991 ft 295 kts 178°
2026-05-06 18:32 -5.70422 106.89839 7404 ft 295 kts 178°
2026-05-06 18:32 -5.71780 106.89819 7280 ft 290 kts 177°
2026-05-06 18:32 -5.73803 106.89781 6762 ft 295 kts 178°
2026-05-06 18:33 -5.75877 106.89736 6334 ft 295 kts 178°
2026-05-06 18:33 -5.77928 106.89690 5978 ft 292 kts 178°
2026-05-06 18:33 -5.80629 106.89632 5533 ft 288 kts 178°
2026-05-06 18:33 -5.81974 106.89604 5311 ft 286 kts 178°
2026-05-06 18:34 -5.83957 106.89562 4983 ft 283 kts 177°
2026-05-06 18:34 -5.86576 106.89507 4549 ft 279 kts 177°
2026-05-06 18:34 -5.87850 106.89480 4337 ft 277 kts 177°
2026-05-06 18:34 -5.89788 106.89439 4015 ft 274 kts 177°
2026-05-06 18:35 -5.92304 106.89386 3596 ft 271 kts 177°
2026-05-06 18:35 -5.94185 106.89345 3247 ft 262 kts 177°
2026-05-06 18:35 -5.95373 106.89216 3048 ft 259 kts 192°
2026-05-06 18:35 -5.96980 106.88403 2954 ft 250 kts 212°
2026-05-06 18:36 -5.98730 106.87014 2957 ft 231 kts 216°
2026-05-06 18:36 -5.99538 106.86323 2960 ft 224 kts 216°
2026-05-06 18:36 -6.00694 106.85325 2964 ft 215 kts 216°
2026-05-06 18:36 -6.01798 106.84369 2970 ft 207 kts 216°
2026-05-06 18:37 -6.02887 106.83428 2976 ft 205 kts 216°
2026-05-06 18:37 -6.03943 106.82465 2949 ft 205 kts 228°
2026-05-06 18:37 -6.04855 106.80767 2814 ft 210 kts 245°
2026-05-06 18:37 -6.05379 106.79421 2530 ft 204 kts 246°
2026-05-06 18:38 -6.05879 106.78149 2292 ft 190 kts 245°
2026-05-06 18:38 -6.06366 106.76939 2061 ft 183 kts 244°
2026-05-06 18:38 -6.06682 106.76159 1914 ft 180 kts 245°
2026-05-06 18:38 -6.07149 106.75002 1698 ft 177 kts 245°
2026-05-06 18:39 -6.07742 106.73525 1404 ft 164 kts 245°
2026-05-06 18:39 -6.08156 106.72498 1202 ft 156 kts 245°
2026-05-06 18:39 -6.08428 106.71822 1067 ft 155 kts 245°
2026-05-06 18:40 -6.09360 106.69504 592 ft 151 kts 245°
2026-05-06 18:40 -6.09622 106.68854 464 ft 150 kts 245°
2026-05-06 18:40 -6.10147 106.67565 197 ft 147 kts 246°
2026-05-06 18:40 -6.10525 106.66610 74 ft 144 kts 245°
2026-05-06 18:41 -6.10888 106.65716 54 ft 126 kts 249°
2026-05-06 18:41 -6.11159 106.65024 53 ft 73 kts 246°
2026-05-06 18:41 -6.11250 106.64854 53 ft 23 kts 229°
2026-05-06 18:41 -6.11416 106.64721 53 ft 15 kts 197°
2026-05-06 18:42 -6.11489 106.64723 53 ft 15 kts 167°
2026-05-06 18:42 -6.11530 106.64823 53 ft 13 kts 74°
2026-05-06 18:42 -6.11498 106.64910 53 ft 12 kts 68°
2026-05-06 18:42 -6.11466 106.64992 53 ft 12 kts 68°
2026-05-06 18:43 -6.11434 106.65073 53 ft 12 kts 68°
2026-05-06 18:43 -6.11412 106.65126 53 ft 12 kts 68°
2026-05-06 18:43 -6.11379 106.65210 53 ft 13 kts 68°
2026-05-06 18:43 -6.11345 106.65296 53 ft 13 kts 69°
2026-05-06 18:44 -6.11297 106.65415 53 ft 13 kts 68°
2026-05-06 18:44 -6.11261 106.65506 53 ft 14 kts 68°
2026-05-06 18:44 -6.11250 106.65598 53 ft 13 kts 122°
2026-05-06 18:44 -6.11274 106.65620 53 ft 0 kts 147°
2026-05-06 18:45 -6.11283 106.65626 53 ft 4 kts 152°
2026-05-06 18:45 -6.11333 106.65647 53 ft 11 kts 158°
2026-05-06 18:45 -6.11415 106.65749 53 ft 18 kts 101°
2026-05-06 18:45 -6.11440 106.65833 53 ft 18 kts 123°
2026-05-06 18:46 -6.11580 106.65927 53 ft 17 kts 153°
2026-05-06 18:46 -6.11655 106.65961 53 ft 17 kts 156°
2026-05-06 18:46 -6.11772 106.66010 53 ft 17 kts 150°
2026-05-06 18:46 -6.11802 106.66090 53 ft 13 kts 65°
2026-05-06 18:47 -6.11764 106.66165 53 ft 9 kts 73°
2026-05-06 18:47 -6.11813 106.66215 53 ft 6 kts 155°
2026-05-06 18:47 -6.11838 106.66225 53 ft 1 kts 158°
2026-05-06 18:47 -6.11843 106.66228 53 ft 0 kts 158°
2026-05-06 18:48 -6.11844 106.66228 53 ft 0 kts 158°
2026-05-06 18:48 -6.11845 106.66228 53 ft 0 kts 158°
2026-05-06 18:48 -6.11848 106.66230 53 ft 0 kts 157°